Showing default

COSMOS 1461, 14064

Orbit data source: Space-Track

COSMOS 1461, 14064 is a payload satellite owned by VMF (CIS) in LEO that was launched on Sat, 07 May 1983 UTC via a TSIKLON-2 launch vehicle from the Tyuratam Missile And Space Complex (TTMTR). Payloads include a variety of satellites, spacecraft, and rockets equipped with specific instruments for various scientific and technological missions. These include communications satellites like Starlink; space stations such as the ISS; scientific satellites like the Hubble; Earth observation satellites from companies like Planet Labs, Umbra, and HawkEye 360; GPS; miniature CubeSats for education and research; and military/defense satellites.

Loading next visibility...
COSMOS 1461 details
Identifier
14064, 1983-044A
Orbit
LEO
Last TLE update1 day ago
Origin
Flag of CISVMF (CIS)
ManufacturerTSSKB/KOMET
MissionDefense Sigint
Bus & MotorUS-P, Unknown motor
Mass3,300 kg wet, ~3,000 kg dry
Launch date (UTC)
1983-05-07 (42 years ago)
Launch vehicle
TSIKLON-2
Launch site
Tyuratam Missile And Space Complex (TTMTR)
Object type
Payload
Rocket body
Debris
Shape & HBRCyl, 10 m
Radar Cross Section10.874 m², Large (>1 m²)

Expand to show TLE details & history

TLE from 1 day ago
0 COSMOS 1461
1 14064U 83044A   24360.42636994  .00024215  00000-0  11907-2 0  9996
2 14064  64.9948   8.0342 0059992  15.7489 344.5484 15.16403577134854
Epoch: 2024-12-25T10:13Z
Definitive object data (Epoch: 2024-12-25T10:13:58.362Z)
Latitude-0.00013°
Longitude120.12068°
Altitude478.914 km
Speed7.649 km/s
True Right ascension00h 32m 08s
True Declination0° 00' 00"
Sunlit
Object was in daylight at TLE epoch
Visualization TLE readout
Latitude-62.19423°
Longitude-1.6072°
Altitude558.801 km
Speed7.571 km/s
Apparent Right ascension20h 12m 53s
Apparent Declination-60° 08' 26"
Sunlit
Object is in daylight
Visualization observer readout
Local Sidereal Time10:27:40
Azimuth145.331° SSE
Elevation-60.949°
Doppler factor1
Orbital elements
Apogee altitude556.598 km
Perigee altitude473.888 km
Semi-major axis6,893.38 km
Eccentricity0.0059992
Inclination64.9948°
RAAN8.0342°
Arg. of periapsis15.7489°
True anomaly344.36391°
Mean anomaly344.5484°
Eccentric anomaly344.45629°
Mean motion3.79223 °/min
BSTAR0.0011907
Orbital period94.93 mins
Loading maneuver chart data...

COSMOS 1461 Visibility forecast

Observer location: undefined°, undefined

Span
Click to sort rows by Start time (UTC) header in descending order
Start Az.
Max El. time (UTC)
Max El. Az.
Max El.
End time (UTC)
End Az.
5 mins2024-12-26 12:07:22.790Z296.936° NW2024-12-26 12:09:22.790Z259.327° W24.754°2024-12-26 12:12:22.790Z194.835° SSW
5 mins2024-12-27 01:57:22.790Z184.506° SSW2024-12-27 01:59:22.790Z116.793° SE37.888°2024-12-27 02:02:22.790Z43.802° NE
4 mins2024-12-27 10:15:22.790Z17.959° NNE2024-12-27 10:16:22.790Z40.727° NE23.178°2024-12-27 10:19:22.790Z100.946° ESE
|